This demonstration page uses our WeatherBlox Daily Observations layout. Learn more.

Left ArrowRight Arrow

38.88101, -77.10428

Hourly Observations for January 3, 2021

Temp ( °F °C ) Dew Point ( °F °C ) Humidity (%) Winds ( mph kmh ) Pressure ( in mb ) Visibility ( mi km ) Precip ( " mm )
12:52 am 00:52 Cloudy 42 5.6 35 1.7 76 76 NE 5 7 30.06 1018 10 16 0.00 0.00
1:52 am 01:52 Cloudy 43 6.1 35 1.7 74 74 Calm 30.09 1019 10 16 0.00 0.00
2:52 am 02:52 Cloudy 43 6.1 35 1.7 74 74 E 3 6 30.08 1019 10 16 0.00 0.00
3:52 am 03:52 Cloudy 43 6.1 35 1.7 74 74 N 7 11 30.04 1017 10 16 0.00 0.00
4:52 am 04:52 Cloudy with Light Rain 41 5 37 2.8 86 86 ENE 8 13 30.03 1017 7 11 0.06 1.52
5:52 am 05:52 Cloudy with Light Rain 41 5 37 2.8 86 86 E 7 11 30.05 1018 7 11 0.07 1.78
6:30 am 06:30 Cloudy with Light Rain 40 4.4 37 2.8 89 89 N 6 9 30.08 1019 9 14 0.05 1.27
6:41 am 06:41 Cloudy with Light Rain 40 4.4 37 2.8 89 89 N 6 9 30.08 1019 8 13 0.05 1.27
6:52 am 06:52 Cloudy with Light Rain 40 4.4 37 2.8 89 89 NNE 7 11 30.06 1018 6 10 0.06 1.52
7:13 am 07:13 Cloudy with Rain 40 4.4 37 2.8 89 89 NE 9 15 30.06 1018 7 11 0.01 0.25
7:36 am 07:36 Cloudy with Light Rain 39 3.9 37 2.8 93 93 NE 10 17 30.05 1018 8 13 0.03 0.76
7:52 am 07:52 Cloudy with Light Rain 39 3.9 37 2.8 93 93 NE 9 15 30.04 1017 9 14 0.03 0.76
7:57 am 07:57 Cloudy with Light Rain 39 3.9 37 2.8 93 93 NE 8 13 30.04 1017 9 14 0.00 0.00
8:52 am 08:52 Cloudy 39 3.9 37 2.8 93 93 NNE 12 19 30.01 1016 10 16 0.00 0.00
9:52 am 09:52 Cloudy 40 4.4 37 2.8 89 89 NNE 7 11 30.00 1016 10 16 0.00 0.00
10:06 am 10:06 Cloudy 40 4.4 37 2.8 89 89 N 8 13 30.00 1016 10 16 0.00 0.00
10:52 am 10:52 Cloudy 40 4.4 38 3.3 93 93 N 8 13 29.98 1015 10 16 0.00 0.00
11:52 am 11:52 Cloudy 40 4.4 38 3.3 93 93 NNE 8 13 29.94 1014 10 16 0.00 0.00
12:13 pm 12:13 Cloudy with Drizzle 40 4.4 38 3.3 93 93 NNE 9 15 29.93 1014 5 8 0.00 0.00
12:52 pm 12:52 Cloudy with Drizzle 40 4.4 38 3.3 93 93 NNE 7 11 29.91 1013 5 8 0.00 0.00
1:52 pm 13:52 Cloudy with Drizzle 41 5 39 3.9 93 93 N 8 13 29.91 1013 4 6 0.00 0.00
2:08 pm 14:08 Cloudy with Drizzle 41 5 39 3.9 93 93 NNW 8 13 29.92 1013 3 4 0.00 0.00
2:15 pm 14:15 Cloudy with Light Rain 41 5 39 3.9 93 93 NNW 8 13 29.92 1013 2 3 0.00 0.00
2:52 pm 14:52 Cloudy with Light Rain 41 5 39 3.9 93 93 NNW 12 19 29.93 1014 2 3 0.01 0.25
3:06 pm 15:06 Cloudy with Rain 41 5 39 3.9 93 93 NW 9 15 29.93 1014 2 3 0.01 0.25
3:20 pm 15:20 Cloudy with Light Rain 41 5 39 3.9 93 93 NNW 10 17 29.94 1014 5 8 0.02 0.51
3:33 pm 15:33 Cloudy 41 5 39 3.9 93 93 NNW 13 20 29.94 1014 10 16 0.02 0.51
3:52 pm 15:52 Cloudy with Light Rain 41 5 38 3.3 89 89 NNW 12 19 29.94 1014 4 6 0.03 0.76
4:01 pm 16:01 Cloudy with Light Rain 41 5 38 3.3 89 89 NNW 10 17 29.94 1014 5 8 0.00 0.00
4:09 pm 16:09 Mostly Cloudy with Mist and Fog 40 4.4 38 3.3 93 93 NNW 7 11 29.94 1014 5 8 0.00 0.00
4:41 pm 16:41 Cloudy with Light Rain 41 5 38 3.3 89 89 NNW 7 11 29.95 1014 10 16 0.02 0.51
4:52 pm 16:52 Cloudy with Light Rain 41 5 38 3.3 89 89 NNW 8 13 29.95 1014 10 16 0.02 0.51
4:59 pm 16:59 Cloudy with Light Rain 41 5 38 3.3 89 89 NW 8 13 29.95 1014 10 16 0.00 0.00
5:18 pm 17:18 Cloudy with Light Rain 40 4.4 38 3.3 93 93 NNW 6 9 29.94 1014 10 16 0.00 0.00
5:27 pm 17:27 Cloudy 40 4.4 38 3.3 93 93 NNW 7 11 29.94 1014 10 16 0.00 0.00
5:33 pm 17:33 Cloudy 40 4.4 38 3.3 93 93 NNW 8 13 29.94 1014 10 16 0.00 0.00
5:52 pm 17:52 Cloudy 40 4.4 38 3.3 93 93 NNW 6 9 29.94 1014 10 16 0.00 0.00
6:52 pm 18:52 Cloudy 40 4.4 37 2.8 89 89 NW 7 11 29.95 1014 10 16 0.00 0.00
7:52 pm 19:52 Cloudy 40 4.4 37 2.8 89 89 NNW 7 11 29.97 1015 10 16 0.00 0.00
8:52 pm 20:52 Cloudy 40 4.4 37 2.8 89 89 NW 12 19 29.98 1015 10 16 0.00 0.00
9:32 pm 21:32 Cloudy 40 4.4 37 2.8 89 89 NW 8 13 29.99 1016 10 16 0.00 0.00
9:52 pm 21:52 Cloudy 40 4.4 37 2.8 89 89 NW 7 11 29.98 1015 10 16 0.00 0.00
10:52 pm 22:52 Mostly Cloudy 40 4.4 37 2.8 89 89 NNW 5 7 29.98 1015 10 16 0.00 0.00
11:52 pm 23:52 Partly Cloudy 38 3.3 35 1.7 89 89 N 7 11 29.98 1015 10 16 0.00 0.00

Powered by AerisWeather